When you browse on this site, cookies collect data to enhance your experience and personalize the content and advertising you see.
Visit our Privacy Policy to learn more. By continuing to use the site, you agree to this use of cookies and data.
  • en France
  • Liste des pays
  • À 7 jours
  • Température de l'eau
  • Carte satellitaire
  • Carte météo
  • Widgets météo
  • user-avatar
    Se connecter

    Météo par heure à Yevlakh

    Ce jour, 27 Juin, Jeudi

    Heure Température Précipitation Vent Pression Humidité
    00:00 +32°C° 0 mm 4 m/s 759 mmHg 42%
    01:00 +30°C° 0 mm 4 m/s 759 mmHg 44%
    02:00 +30°C° 0 mm 3 m/s 759 mmHg 46%
    03:00 +29°C° 0 mm 3 m/s 759 mmHg 49%
    04:00 +29°C° 0 mm 3 m/s 759 mmHg 49%
    05:00 +30°C° 0 mm 4 m/s 759 mmHg 48%
    06:00 +30°C° 0 mm 4 m/s 759 mmHg 47%
    07:00 +32°C° 0 mm 4 m/s 758 mmHg 43%
    08:00 +34°C° 0 mm 4 m/s 758 mmHg 39%
    09:00 +35°C° 0 mm 4 m/s 758 mmHg 35%
    10:00 +36°C° 0 mm 5 m/s 758 mmHg 32%
    11:00 +37°C° 0 mm 5 m/s 757 mmHg 29%
    12:00 +39°C° 0 mm 5 m/s 757 mmHg 26%
    13:00 +40°C° 0 mm 5 m/s 756 mmHg 25%
    14:00 +40°C° 0 mm 5 m/s 756 mmHg 25%
    15:00 +40°C° 0 mm 5 m/s 756 mmHg 24%
    16:00 +40°C° 0 mm 5 m/s 755 mmHg 25%
    17:00 +40°C° 0 mm 5 m/s 755 mmHg 26%
    18:00 +39°C° 0 mm 5 m/s 755 mmHg 26%
    19:00 +36°C° 0 mm 5 m/s 755 mmHg 30%
    20:00 +35°C° 0 mm 6 m/s 756 mmHg 33%
    21:00 +33°C° 0 mm 6 m/s 756 mmHg 37%
    22:00 +32°C° 0 mm 6 m/s 756 mmHg 41%
    23:00 +30°C° 0 mm 5 m/s 756 mmHg 46%

    Demain, 28 Juin, Vendredi

    Heure Température Précipitation Vent Pression Humidité
    00:00 +29°C° 0 mm 4 m/s 756 mmHg 50%
    01:00 +28°C° 0 mm 4 m/s 755 mmHg 51%
    02:00 +28°C° 0 mm 3 m/s 755 mmHg 53%
    03:00 +27°C° 0 mm 3 m/s 755 mmHg 54%
    04:00 +28°C° 0 mm 3 m/s 755 mmHg 53%
    05:00 +28°C° 0 mm 3 m/s 754 mmHg 52%
    06:00 +28°C° 0 mm 2 m/s 754 mmHg 51%
    07:00 +30°C° 0 mm 3 m/s 754 mmHg 45%
    08:00 +33°C° 0 mm 3 m/s 754 mmHg 40%
    09:00 +34°C° 0 mm 3 m/s 753 mmHg 34%
    10:00 +35°C° 0 mm 3 m/s 753 mmHg 31%
    11:00 +37°C° 0 mm 3 m/s 752 mmHg 28%
    12:00 +38°C° 0 mm 3 m/s 751 mmHg 25%
    13:00 +39°C° 0 mm 3 m/s 751 mmHg 24%
    14:00 +40°C° 0 mm 4 m/s 750 mmHg 23%
    15:00 +41°C° 0 mm 4 m/s 750 mmHg 23%
    16:00 +41°C° 0 mm 4 m/s 750 mmHg 23%
    17:00 +40°C° 0 mm 4 m/s 749 mmHg 24%
    18:00 +40°C° 0 mm 4 m/s 749 mmHg 25%
    19:00 +37°C° 0 mm 4 m/s 750 mmHg 29%
    20:00 +35°C° 0 mm 3 m/s 750 mmHg 33%
    21:00 +32°C° 0 mm 2 m/s 751 mmHg 38%
    22:00 +31°C° 0 mm 2 m/s 751 mmHg 39%
    23:00 +31°C° 0 mm 2 m/s 750 mmHg 40%

    Après-demain, 29 Juin, Samedi

    Heure Température Précipitation Vent Pression Humidité
    00:00 +30°C° 0 mm 2 m/s 750 mmHg 40%
    01:00 +29°C° 0 mm 2 m/s 750 mmHg 42%
    02:00 +29°C° 0 mm 2 m/s 750 mmHg 44%
    03:00 +28°C° 0 mm 2 m/s 750 mmHg 45%
    04:00 +28°C° 0.1 mm 3 m/s 750 mmHg 49%
    05:00 +29°C° 0.1 mm 4 m/s 750 mmHg 52%
    06:00 +29°C° 0.1 mm 5 m/s 750 mmHg 55%
    07:00 +30°C° 0.2 mm 5 m/s 750 mmHg 51%
    08:00 +33°C° 0.2 mm 4 m/s 750 mmHg 47%
    09:00 +34°C° 0.2 mm 4 m/s 750 mmHg 43%
    10:00 +35°C° 0.1 mm 3 m/s 749 mmHg 39%
    11:00 +36°C° 0.1 mm 3 m/s 749 mmHg 36%
    12:00 +38°C° 0.1 mm 3 m/s 749 mmHg 32%
    13:00 +38°C° 0 mm 3 m/s 748 mmHg 31%
    14:00 +39°C° 0 mm 3 m/s 748 mmHg 30%
    15:00 +40°C° 0 mm 4 m/s 747 mmHg 29%
    16:00 +38°C° 0.3 mm 6 m/s 747 mmHg 35%
    17:00 +35°C° 0.3 mm 8 m/s 747 mmHg 41%
    18:00 +33°C° 0.3 mm 11 m/s 747 mmHg 47%
    19:00 +31°C° 0.8 mm 10 m/s 748 mmHg 50%
    20:00 +29°C° 0.8 mm 10 m/s 749 mmHg 53%
    21:00 +28°C° 0.8 mm 9 m/s 750 mmHg 55%
    22:00 +27°C° 0.6 mm 9 m/s 750 mmHg 58%
    23:00 +27°C° 0.6 mm 10 m/s 750 mmHg 60%

    30 Juin, Dimanche

    Heure Température Précipitation Vent Pression Humidité
    00:00 +26°C° 0.6 mm 10 m/s 751 mmHg 63%
    01:00 +26°C° 0.4 mm 10 m/s 751 mmHg 62%
    02:00 +24°C° 0.4 mm 10 m/s 751 mmHg 60%
    03:00 +24°C° 0.4 mm 9 m/s 751 mmHg 59%
    04:00 +24°C° 0 mm 10 m/s 751 mmHg 56%
    05:00 +24°C° 0 mm 10 m/s 752 mmHg 54%
    06:00 +24°C° 0 mm 11 m/s 752 mmHg 51%
    07:00 +27°C° 0 mm 10 m/s 752 mmHg 47%
    08:00 +28°C° 0 mm 9 m/s 752 mmHg 43%
    09:00 +31°C° 0 mm 8 m/s 752 mmHg 39%
    10:00 +32°C° 0 mm 7 m/s 752 mmHg 35%
    11:00 +33°C° 0 mm 6 m/s 752 mmHg 32%
    12:00 +34°C° 0 mm 5 m/s 752 mmHg 28%
    13:00 +34°C° 0.1 mm 4 m/s 752 mmHg 29%
    14:00 +34°C° 0.1 mm 3 m/s 752 mmHg 30%
    15:00 +35°C° 0.1 mm 3 m/s 752 mmHg 30%
    16:00 +33°C° 0.1 mm 4 m/s 752 mmHg 35%
    17:00 +32°C° 0.1 mm 5 m/s 752 mmHg 39%
    18:00 +30°C° 0.1 mm 7 m/s 752 mmHg 43%
    19:00 +29°C° 0.3 mm 6 m/s 753 mmHg 48%
    20:00 +27°C° 0.3 mm 4 m/s 754 mmHg 52%
    21:00 +26°C° 0.3 mm 3 m/s 754 mmHg 57%
    22:00 +25°C° 0.6 mm 5 m/s 755 mmHg 61%
    23:00 +22°C° 0.6 mm 6 m/s 755 mmHg 64%

    1 Juillet, Lundi

    Heure Température Précipitation Vent Pression Humidité
    00:00 +21°C° 0.6 mm 7 m/s 755 mmHg 68%
    01:00 +21°C° 0.3 mm 7 m/s 755 mmHg 68%
    02:00 +21°C° 0.3 mm 7 m/s 755 mmHg 68%
    03:00 +20°C° 0.3 mm 8 m/s 755 mmHg 68%
    04:00 +20°C° 0.2 mm 8 m/s 755 mmHg 66%
    05:00 +20°C° 0.2 mm 8 m/s 756 mmHg 63%
    06:00 +20°C° 0.2 mm 8 m/s 756 mmHg 61%
    07:00 +20°C° 1.1 mm 7 m/s 756 mmHg 64%
    08:00 +20°C° 1.1 mm 7 m/s 757 mmHg 68%
    09:00 +19°C° 1.1 mm 6 m/s 757 mmHg 71%
    10:00 +19°C° 0.5 mm 5 m/s 757 mmHg 71%
    11:00 +19°C° 0.5 mm 3 m/s 757 mmHg 72%
    12:00 +19°C° 0.5 mm 2 m/s 758 mmHg 72%
    13:00 +20°C° 0.1 mm 2 m/s 758 mmHg 70%
    14:00 +20°C° 0.1 mm 2 m/s 757 mmHg 69%
    15:00 +21°C° 0.1 mm 2 m/s 757 mmHg 67%
    16:00 +21°C° 0 mm 3 m/s 758 mmHg 67%
    17:00 +21°C° 0 mm 4 m/s 758 mmHg 66%
    18:00 +21°C° 0 mm 5 m/s 758 mmHg 66%
    19:00 +20°C° 0 mm 4 m/s 759 mmHg 70%
    20:00 +19°C° 0 mm 4 m/s 759 mmHg 75%
    21:00 +18°C° 0 mm 3 m/s 760 mmHg 79%
    22:00 +18°C° 0 mm 3 m/s 760 mmHg 81%
    23:00 +18°C° 0 mm 2 m/s 760 mmHg 82%

    2 Juillet, Mardi

    Heure Température Précipitation Vent Pression Humidité
    00:00 +18°C° 0 mm 1 m/s 760 mmHg 84%
    01:00 +18°C° 0 mm 1 m/s 760 mmHg 83%
    02:00 +17°C° 0 mm 2 m/s 760 mmHg 82%
    03:00 +17°C° 0 mm 2 m/s 761 mmHg 81%
    04:00 +18°C° 0 mm 2 m/s 761 mmHg 78%
    05:00 +19°C° 0 mm 1 m/s 761 mmHg 75%
    06:00 +20°C° 0 mm 1 m/s 761 mmHg 72%
    07:00 +21°C° 0 mm 2 m/s 761 mmHg 64%
    08:00 +24°C° 0 mm 3 m/s 761 mmHg 55%
    09:00 +25°C° 0 mm 4 m/s 761 mmHg 47%
    10:00 +27°C° 0 mm 4 m/s 761 mmHg 42%
    11:00 +28°C° 0 mm 5 m/s 760 mmHg 37%
    12:00 +30°C° 0 mm 6 m/s 760 mmHg 33%
    13:00 +32°C° 0 mm 6 m/s 760 mmHg 31%
    14:00 +32°C° 0 mm 5 m/s 759 mmHg 29%
    15:00 +33°C° 0 mm 4 m/s 759 mmHg 27%
    16:00 +33°C° 0 mm 3 m/s 759 mmHg 27%
    17:00 +32°C° 0 mm 2 m/s 759 mmHg 28%
    18:00 +32°C° 0 mm 1 m/s 759 mmHg 28%
    19:00 +30°C° 0 mm 1 m/s 760 mmHg 34%
    20:00 +28°C° 0 mm 2 m/s 760 mmHg 39%
    21:00 +26°C° 0 mm 3 m/s 760 mmHg 44%
    22:00 +26°C° 0 mm 3 m/s 760 mmHg 46%
    23:00 +25°C° 0 mm 3 m/s 760 mmHg 48%
    Voir plus